Home > Weather > Inverness > Past weeks

Flag for United Kingdom Past Weather in Inverness, Scotland, United Kingdom — Yesterday and Last 2 Weeks

Now
59 °F

Sprinkles. Broken clouds.


Feels Like: 57 °F
Forecast: 51 / 60 °F
Wind: 12 mph from West

Location: Inverness / Dalcross

Current Time: Jun 26, 2016 at 6:25:57 PM

Latest Report: Jun 26, 2016 at 5:50 PM


Visibility: N/A

Pressure: 29.77 "Hg

Humidity: 88%

Dew Point: 55 °F

Location of InvernessLocation

Past Weather in Inverness — Graph

°F

Inverness Temperature Yesterday

Maximum temperature yesterday: 61 °F (at 10:50 AM)
Minimum temperature yesterday: 54 °F (at 12:20 AM)
Average temperature yesterday: 57 °F

High & Low Weather Summary for the Past Weeks

 TemperatureHumidityPressure
High68 °F (Jun 22, 3:50 PM)100% (Jun 11, 10:50 PM)30.15 "Hg (Jun 11, 10:50 PM)
Low43 °F (Jun 19, 1:20 AM)51% (Jun 18, 4:20 PM)29.50 "Hg (Jun 14, 6:50 PM)
Average56 °F83%29.83 "Hg
* Reported Jun 11 5:20 PM — Jun 26 5:20 PM, Inverness, Weather by CustomWeather, © 2016

Note: Actual official high and low records may vary slightly from our data, if they occured in-between our weather recording intervals... More about our weather records

Advertising

Inverness Weather History for the Previous 24 Hours

Scroll right to see more
 ConditionsComfort  
Time TempWeatherWind HumidityBarometerVisibility
5:20 PM
Sun, Jun 26
59 °FBroken clouds.14 mph88%29.77 "HgN/A
4:50 PM57 °FBroken clouds.10 mph94%29.77 "HgN/A
4:20 PM57 °FLight rain. Broken clouds.13 mph94%29.80 "HgN/A
3:50 PM57 °FLight rain. Broken clouds.17 mph94%29.80 "Hg2 mi
3:20 PM59 °FLight rain. Scattered clouds.18 mph82%29.80 "HgN/A
2:50 PM61 °FLight rain. Passing clouds.16 mph77%29.83 "HgN/A
2:20 PM61 °FLight rain. Passing clouds.14 mph77%29.80 "HgN/A
1:50 PM63 °FLight rain. Passing clouds.18 mph77%29.83 "HgN/A
1:20 PM66 °FPassing clouds.17 mph64%29.83 "HgN/A
12:50 PM68 °FPassing clouds.13 mph56%29.83 "HgN/A
12:20 PM68 °FPassing clouds.10 mph56%29.86 "HgN/A
11:50 AM66 °FPassing clouds.12 mph60%29.86 "HgN/A
11:20 AM66 °FPassing clouds.15 mph56%29.89 "HgN/A
10:50 AM64 °FPassing clouds.15 mph68%29.89 "HgN/A
10:20 AM63 °FPassing clouds.16 mph68%29.89 "HgN/A
9:50 AM61 °FPassing clouds.15 mph68%29.92 "HgN/A
9:20 AM61 °FPassing clouds.14 mph72%29.92 "HgN/A
8:50 AM59 °FScattered clouds.7 mph77%29.95 "HgN/A
8:20 AM57 °FScattered clouds.9 mph82%29.95 "HgN/A
7:50 AM59 °FScattered clouds.9 mph82%29.95 "HgN/A
7:20 AM55 °FBroken clouds.9 mph94%29.98 "HgN/A
6:50 AM55 °FBroken clouds.9 mph94%29.98 "HgN/A
6:20 AM55 °FMore clouds than sun.6 mph94%29.98 "HgN/A
5:50 AM54 °FLow clouds.2 mph100%29.98 "Hg5 mi
5:20 AM54 °FLow clouds.2 mph94%30.01 "Hg4 mi
4:50 AM54 °FOvercast.No wind94%30.01 "Hg4 mi
4:20 AM54 °FPassing clouds.2 mph94%30.01 "Hg4 mi
3:50 AM54 °FLow clouds.2 mph94%30.01 "Hg4 mi
3:20 AM54 °FPassing clouds.2 mph94%30.04 "Hg6 mi
2:50 AM54 °FMostly cloudy.3 mph94%30.04 "HgN/A
2:20 AM54 °FPassing clouds.No wind94%30.04 "HgN/A
1:50 AM54 °FLow clouds.2 mph94%30.04 "HgN/A
1:20 AM54 °FPassing clouds.3 mph94%30.04 "HgN/A
12:50 AM54 °FPassing clouds.No wind94%30.07 "HgN/A
12:20 AM54 °FLow clouds.2 mph94%30.07 "HgN/A
11:50 PM
Sat, Jun 25
54 °FLow clouds.No wind94%30.07 "HgN/A
11:20 PM54 °FPassing clouds.3 mph94%30.07 "HgN/A
10:50 PM54 °FPartly sunny.3 mph94%30.07 "HgN/A
10:20 PM54 °FPartly sunny.3 mph94%30.07 "HgN/A
9:50 PM55 °FBroken clouds.5 mph88%30.07 "HgN/A
9:20 PM55 °FBroken clouds.5 mph88%30.07 "HgN/A
8:50 PM54 °FPartly sunny.3 mph94%30.07 "HgN/A
8:20 PM55 °FScattered clouds.6 mph88%30.07 "HgN/A
7:50 PM57 °FScattered clouds.7 mph88%30.07 "HgN/A
7:20 PM59 °FScattered clouds.8 mph82%30.07 "HgN/A
6:50 PM57 °FScattered clouds.7 mph88%30.07 "HgN/A
6:20 PM57 °FScattered clouds.8 mph88%30.07 "HgN/A
Weather by CustomWeather, © 2016

See weather overviewHow to use our weather pages